This is the latest recevied weather packets stored in our database for station/object KE8KMM. If no packets are shown the sender has not sent any weather packets the latest 10 day(s).
| Time | Temp. | Humidity | Pressure | Rain* | Wind** | Luminosity | Snow |
|---|---|---|---|---|---|---|---|
| 1777665890 | 10.56° C | 84% | 1010.6 hPa | 0 mm | - | 65 W/m² | - |
| 1777665587 | 11.67° C | 85% | 1010.2 hPa | 0 mm | - | 112 W/m² | - |
| 1777665284 | 11.11° C | 86% | 1010 hPa | 0 mm | - | 305 W/m² | - |
| 1777664980 | 12.22° C | 86% | 1009.9 hPa | 0 mm | - | 175 W/m² | - |
| 1777664676 | 11.67° C | 86% | 1009.9 hPa | 0 mm | - | 764 W/m² | - |
| 1777664372 | 11.67° C | 87% | 1010.1 hPa | 0 mm | - | 345 W/m² | - |
| 1777664070 | 12.22° C | 89% | 1010.1 hPa | 0 mm | - | 678 W/m² | - |
| 1777663768 | 11.11° C | 91% | 1009.9 hPa | 0 mm | - | 610 W/m² | - |
| 1777663464 | 9.44° C | 91% | 1010.2 hPa | 0 mm | - | 406 W/m² | - |
| 1777663162 | 9.44° C | 91% | 1010.5 hPa | 0 mm | - | 79 W/m² | - |
| 1777662859 | 8.89° C | 91% | 1010.3 hPa | 0 mm | - | 103 W/m² | - |
| 1777662556 | 8.89° C | 90% | 1010.4 hPa | 0 mm | - | 81 W/m² | - |
| 1777662252 | 9.44° C | 90% | 1010.5 hPa | 0 mm | - | 29 W/m² | - |
| 1777661952 | 9.44° C | 89% | 1010.5 hPa | 0 mm | - | 22 W/m² | - |
| 1777661649 | 9.44° C | 89% | 1010.4 hPa | 0 mm | - | 26 W/m² | - |
| 1777661344 | 9.44° C | 89% | 1010.3 hPa | 0 mm | - | 52 W/m² | - |
| 1777661041 | 9.44° C | 89% | 1010.3 hPa | 0 mm | - | 89 W/m² | - |
| 1777660736 | 9.44° C | 89% | 1010.1 hPa | 0 mm | - | 89 W/m² | - |
| 1777660433 | 9.44° C | 89% | 1010.3 hPa | 1.27 mm | - | 97 W/m² | - |
| 1777660130 | 10° C | 89% | 1010.5 hPa | 1.27 mm | - | 83 W/m² | - |
| 1777659827 | 9.44° C | 89% | 1010.5 hPa | 0 mm | - | 137 W/m² | - |
| 1777659523 | 9.44° C | 89% | 1010.3 hPa | 0 mm | - | 112 W/m² | - |
| 1777659221 | 9.44° C | 88% | 1010.5 hPa | 0 mm | - | 73 W/m² | - |
| 1777658918 | 9.44° C | 88% | 1010.3 hPa | 0 mm | - | 223 W/m² | - |
| 1777658614 | 9.44° C | 89% | 1010.4 hPa | 0 mm | - | 141 W/m² | - |
* Rain latest hour (hover to see other rain measurements)
** Current wind speed in m/s (hover to see current wind gust speed)